Change the Weather History Date:

Wednesday, May 1, 2013

  Actual Average Record
Temperature  
Mean Temperature 82 °F -  
Max Temperature 90 °F 101 °F 105 °F (2006)
Min Temperature 75 °F 77 °F 69 °F (1997)
Cooling Degree Days 18    
Growing Degree Days 32 (Base 50)    
Moisture  
Dew Point 70 °F    
Average Humidity 70    
Maximum Humidity 94    
Minimum Humidity 40    
Precipitation  
Precipitation 0.00 in 0.00 in - ()
Sea Level Pressure  
Sea Level Pressure 29.81 in    
Wind  
Wind Speed 10 mph ()    
Max Wind Speed 17 mph    
Max Gust Speed 25 mph    
Visibility 6.2 miles    
Events      
Averages and records for this station are not official NWS values.
T = Trace of Precipitation, MM = Missing Value Source: Averaged Metar Reports

Daily Weather History Graph

Daily Weather History Graph

Search for Another Location

Airport or City:

Trip Planner

Search our weather history database for the weather conditions in past years. The results will help you decide how hot, cold, wet, or windy it might be!

Date:

Astronomy

May. 01, 2013 Rise Set
Actual Time 4:57 AM AST 6:04 PM AST
Civil Twilight 4:33 AM AST 6:28 PM AST
Nautical Twilight 4:05 AM AST 6:56 PM AST
Astronomical Twilight 3:35 AM AST 7:26 PM AST
Moon 11:41 PM AST (5/1) 10:11 AM AST (5/1)
Length of Visible Light 13h 54m
Length of Day
13h 06m
Waning Gibbous, 62% of the Moon is Illuminated
May 1
Waning Gibbous
May 2
Last Quarter
May 10
New
May 18
First Quarter
May 25
Full

Hourly Weather History & Observations

Time (AST) Temp. Heat Index Dew Point Humidity Pressure Visibility Wind Dir Wind Speed Gust Speed Precip Events Conditions
12:00 AM 75.2 °F - 68.0 °F 78% 29.86 in 6.2 mi East 8.1 mph - N/A   Scattered Clouds
12:30 AM 75.2 °F - 69.8 °F 83% 29.83 in - East 10.4 mph - N/A   Clear
1:00 AM 75.2 °F - 69.8 °F 83% 29.83 in - ESE 11.5 mph - N/A   Clear
1:30 AM 77.0 °F - 69.8 °F 78% 29.80 in - ESE 9.2 mph - N/A   Clear
2:00 AM 77.0 °F - 71.6 °F 83% 29.80 in 5.6 mi ESE 9.2 mph - N/A   Unknown
2:30 AM 77.0 °F - 71.6 °F 83% 29.80 in 5.6 mi ESE 10.4 mph - N/A   Unknown
3:00 AM 76 °F - 72 °F 84% 29.81 in 6 mi ESE 9.2 mph - -   Partly Cloudy
3:00 AM 77.0 °F - 71.6 °F 83% 29.80 in - ESE 9.2 mph - N/A   Clear
3:30 AM 77.0 °F - 73.4 °F 89% 29.80 in 6.2 mi ESE 9.2 mph - N/A   Partly Cloudy
4:00 AM 77.0 °F - 73.4 °F 89% 29.80 in 6.2 mi ESE 8.1 mph - N/A   Scattered Clouds
4:30 AM 77.0 °F - 73.4 °F 89% 29.83 in 6.2 mi SE 6.9 mph - N/A   Mostly Cloudy
5:00 AM 77.0 °F - 73.4 °F 89% 29.83 in 6.2 mi ESE 5.8 mph - N/A   Scattered Clouds
5:30 AM 77.0 °F - 73.4 °F 89% 29.83 in 6.2 mi ESE 5.8 mph - N/A   Scattered Clouds
6:00 AM 78.8 °F - 73.4 °F 83% 29.86 in 6.2 mi SE 8.1 mph - N/A   Mostly Cloudy
6:30 AM 78.8 °F - 73.4 °F 83% 29.86 in 6.2 mi SE 11.5 mph - N/A   Mostly Cloudy
7:00 AM 78.8 °F - 75.2 °F 89% 29.86 in 6.2 mi SE 13.8 mph - N/A   Mostly Cloudy
7:30 AM 77.0 °F - 75.2 °F 94% 29.86 in 5.0 mi SE 13.8 mph - N/A   Haze
8:00 AM 80.6 °F 85.4 °F 73.4 °F 79% 29.86 in 5.0 mi SSE 13.8 mph - N/A   Haze
8:30 AM 80.6 °F 85.4 °F 73.4 °F 79% 29.89 in 5.6 mi SSE 13.8 mph - N/A   Haze
9:00 AM 82 °F - 73 °F 68% 29.88 in 6 mi South 10.4 mph - -   Haze
9:00 AM 82.4 °F 88.2 °F 73.4 °F 74% 29.86 in 5.6 mi South 10.4 mph - N/A   Haze
9:30 AM 84.2 °F 89.6 °F 71.6 °F 66% 29.86 in 6.2 mi SSE 10.4 mph - N/A   Scattered Clouds
10:00 AM 86.0 °F 90.4 °F 69.8 °F 58% 29.86 in 6.2 mi South 12.7 mph - N/A   Scattered Clouds
10:30 AM 84.2 °F 90.9 °F 73.4 °F 70% 29.86 in 6.2 mi SSE 15.0 mph - N/A   Scattered Clouds
11:00 AM 86.0 °F 93.4 °F 73.4 °F 66% 29.86 in 6.2 mi SE 15.0 mph - N/A   Scattered Clouds
12:00 PM 87.8 °F 93.8 °F 71.6 °F 58% 29.83 in 6.2 mi South 16.1 mph - N/A   Scattered Clouds
1:00 PM 89.6 °F 92.2 °F 66.2 °F 46% 29.80 in 6.2 mi South 17.3 mph - N/A   Scattered Clouds
1:30 PM 89.6 °F 92.2 °F 66.2 °F 46% 29.80 in 6.2 mi SSE 12.7 mph 25.3 mph N/A   Mostly Cloudy
2:00 PM 87.8 °F 90.4 °F 66.2 °F 49% 29.80 in 6.2 mi SSE 12.7 mph - N/A   Scattered Clouds
2:30 PM 87.8 °F 91.4 °F 68.0 °F 52% 29.77 in 6.2 mi South 12.7 mph - N/A   Scattered Clouds
3:00 PM - - 65 °F % 29.78 in 9 mi NNE 12.7 mph - -   Scattered Clouds
3:00 PM 87.8 °F 90.4 °F 66.2 °F 49% 29.77 in 6.2 mi SSE 12.7 mph - N/A   Scattered Clouds
3:30 PM 87.8 °F 90.4 °F 66.2 °F 49% 29.77 in 6.2 mi South 10.4 mph - N/A   Scattered Clouds
4:00 PM 89.6 °F 90.1 °F 62.6 °F 40% 29.77 in 6.2 mi SSW 12.7 mph - N/A   Scattered Clouds
4:30 PM 87.8 °F 89.4 °F 64.4 °F 46% 29.77 in 6.2 mi SSW 12.7 mph - N/A   Partly Cloudy
5:00 PM 87.8 °F 89.4 °F 64.4 °F 46% 29.77 in 6.2 mi SSW 12.7 mph - N/A   Scattered Clouds
5:30 PM 87.8 °F 89.4 °F 64.4 °F 46% 29.77 in 6.2 mi SSW 11.5 mph - N/A   Scattered Clouds
6:00 PM 87.8 °F 89.4 °F 64.4 °F 46% 29.77 in 6.2 mi SSW 6.9 mph - N/A   Scattered Clouds
6:30 PM 84.2 °F 88.4 °F 69.8 °F 62% 29.77 in 6.2 mi SE 5.8 mph - N/A   Scattered Clouds
7:00 PM 82.4 °F 86.3 °F 69.8 °F 66% 29.77 in 6.2 mi SE 9.2 mph - N/A   Scattered Clouds
7:30 PM 80.6 °F 84.6 °F 71.6 °F 74% 29.77 in 6.2 mi ESE 9.2 mph - N/A   Scattered Clouds
8:00 PM 80.6 °F 84.6 °F 71.6 °F 74% 29.80 in - ESE 11.5 mph - N/A   Clear
8:30 PM 80.6 °F 84.6 °F 71.6 °F 74% 29.77 in - East 10.4 mph - N/A   Clear
9:00 PM 79 °F - 72 °F 74% 29.79 in 9 mi ESE 9.2 mph - -   Partly Cloudy
9:00 PM 78.8 °F - 71.6 °F 78% 29.77 in - ESE 9.2 mph - N/A   Clear
9:30 PM 78.8 °F - 71.6 °F 78% 29.80 in - ESE 12.7 mph - N/A   Clear
10:00 PM 80.6 °F 83.9 °F 69.8 °F 70% 29.80 in - ESE 12.7 mph - N/A   Clear
11:00 PM 78.8 °F - 71.6 °F 78% 29.80 in - SE 16.1 mph - N/A   Clear